When you browse on this site, cookies collect data to enhance your experience and personalize the content and advertising you see.
Visit our Privacy Policy to learn more. By continuing to use the site, you agree to this use of cookies and data.
  • In Hungary
  • List of Countries
  • For 7 days
  • Water Temperature
  • Satellite Maps
  • Weather Map
  • News
  • Weather Widgets
  • user-avatar
    Login

    Hourly Weather Barvenkovo

    Today, 19 November, Monday

    Time Temperature Precipitation Wind Pressure Humidity
    00:00 0°C° 0 mm 1 mps 759 mmHg 47%
    01:00 -1°C° 0 mm 1 mps 759 mmHg 50%
    02:00 -1°C° 0 mm 1 mps 759 mmHg 54%
    03:00 -1°C° 0 mm 1 mps 759 mmHg 55%
    04:00 -1°C° 0 mm 1 mps 759 mmHg 56%
    05:00 -3°C° 0 mm 2 mps 759 mmHg 57%
    06:00 -3°C° 0 mm 2 mps 759 mmHg 57%
    07:00 -3°C° 0 mm 2 mps 759 mmHg 56%
    08:00 -2°C° 0 mm 3 mps 759 mmHg 55%
    09:00 -1°C° 0 mm 3 mps 759 mmHg 51%
    10:00 0°C° 0 mm 3 mps 759 mmHg 47%
    11:00 +1°C° 0 mm 3 mps 759 mmHg 44%
    12:00 +2°C° 0 mm 3 mps 759 mmHg 44%
    13:00 +1°C° 0 mm 4 mps 759 mmHg 44%
    14:00 +1°C° 0 mm 4 mps 759 mmHg 44%
    15:00 0°C° 0 mm 4 mps 758 mmHg 46%
    16:00 0°C° 0 mm 4 mps 758 mmHg 49%
    17:00 -1°C° 0 mm 4 mps 758 mmHg 52%
    18:00 -1°C° 0 mm 4 mps 758 mmHg 53%
    19:00 -1°C° 0 mm 4 mps 758 mmHg 54%
    20:00 -1°C° 0 mm 4 mps 757 mmHg 56%
    21:00 -1°C° 0 mm 5 mps 757 mmHg 55%
    22:00 -1°C° 0 mm 5 mps 757 mmHg 55%
    23:00 -2°C° 0 mm 5 mps 757 mmHg 54%

    Tomorrow, 20 November, Tuesday

    Time Temperature Precipitation Wind Pressure Humidity
    00:00 -2°C° 0.1 mm 5 mps 757 mmHg 55%
    01:00 -2°C° 0.1 mm 5 mps 757 mmHg 56%
    02:00 -2°C° 0.1 mm 5 mps 756 mmHg 57%
    03:00 -2°C° 0.1 mm 5 mps 756 mmHg 57%
    04:00 -2°C° 0.1 mm 5 mps 756 mmHg 58%
    05:00 -2°C° 0.1 mm 5 mps 755 mmHg 59%
    06:00 -3°C° 0.1 mm 6 mps 755 mmHg 60%
    07:00 -3°C° 0.1 mm 6 mps 755 mmHg 61%
    08:00 -3°C° 0.1 mm 6 mps 755 mmHg 62%
    09:00 -3°C° 0.3 mm 6 mps 755 mmHg 61%
    10:00 -3°C° 0.3 mm 6 mps 755 mmHg 61%
    11:00 -3°C° 0.3 mm 6 mps 756 mmHg 61%
    12:00 -2°C° 0.3 mm 6 mps 756 mmHg 60%
    13:00 -2°C° 0.3 mm 6 mps 755 mmHg 58%
    14:00 -2°C° 0.3 mm 6 mps 755 mmHg 57%
    15:00 -2°C° 0 mm 5 mps 756 mmHg 59%
    16:00 -2°C° 0 mm 4 mps 756 mmHg 61%
    17:00 -3°C° 0 mm 4 mps 756 mmHg 63%
    18:00 -3°C° 0 mm 4 mps 757 mmHg 69%
    19:00 -4°C° 0 mm 4 mps 757 mmHg 74%
    20:00 -4°C° 0 mm 4 mps 757 mmHg 80%
    21:00 -4°C° 0 mm 4 mps 758 mmHg 84%
    22:00 -4°C° 0 mm 3 mps 758 mmHg 87%
    23:00 -5°C° 0 mm 3 mps 758 mmHg 91%

    Day after tomorrow, 21 November, Wednesday

    Time Temperature Precipitation Wind Pressure Humidity
    00:00 -5°C° 0 mm 3 mps 758 mmHg 92%
    01:00 -5°C° 0 mm 3 mps 758 mmHg 92%
    02:00 -5°C° 0 mm 3 mps 758 mmHg 93%
    03:00 -5°C° 0 mm 3 mps 758 mmHg 94%
    04:00 -6°C° 0 mm 3 mps 758 mmHg 94%
    05:00 -6°C° 0 mm 3 mps 758 mmHg 94%
    06:00 -4°C° 0 mm 2 mps 758 mmHg 93%
    07:00 -4°C° 0 mm 2 mps 758 mmHg 92%
    08:00 -4°C° 0 mm 2 mps 758 mmHg 91%
    09:00 -3°C° 0 mm 2 mps 758 mmHg 85%
    10:00 -1°C° 0 mm 2 mps 758 mmHg 78%
    11:00 +1°C° 0 mm 2 mps 758 mmHg 71%
    12:00 +1°C° 0 mm 2 mps 758 mmHg 69%
    13:00 +1°C° 0 mm 2 mps 757 mmHg 67%
    14:00 +2°C° 0 mm 2 mps 757 mmHg 65%
    15:00 -1°C° 0 mm 2 mps 757 mmHg 69%
    16:00 -2°C° 0 mm 2 mps 757 mmHg 73%
    17:00 -3°C° 0 mm 2 mps 757 mmHg 77%
    18:00 -3°C° 0 mm 2 mps 757 mmHg 78%
    19:00 -3°C° 0 mm 2 mps 757 mmHg 79%
    20:00 -4°C° 0 mm 2 mps 757 mmHg 81%
    21:00 -4°C° 0 mm 2 mps 757 mmHg 81%
    22:00 -4°C° 0 mm 2 mps 757 mmHg 82%
    23:00 -4°C° 0 mm 2 mps 757 mmHg 83%

    22 November, Thursday

    Time Temperature Precipitation Wind Pressure Humidity
    00:00 -5°C° 0 mm 2 mps 757 mmHg 84%
    01:00 -5°C° 0 mm 2 mps 757 mmHg 86%
    02:00 -5°C° 0 mm 2 mps 757 mmHg 88%
    03:00 -5°C° 0 mm 2 mps 757 mmHg 87%
    04:00 -5°C° 0 mm 2 mps 757 mmHg 87%
    05:00 -5°C° 0 mm 2 mps 757 mmHg 86%
    06:00 -4°C° 0 mm 2 mps 757 mmHg 82%
    07:00 -3°C° 0 mm 2 mps 758 mmHg 78%
    08:00 -4°C° 0 mm 3 mps 758 mmHg 74%
    09:00 -2°C° 0 mm 3 mps 758 mmHg 69%
    10:00 -1°C° 0 mm 3 mps 758 mmHg 64%
    11:00 -1°C° 0 mm 3 mps 757 mmHg 59%
    12:00 -1°C° 0 mm 3 mps 757 mmHg 59%
    13:00 0°C° 0 mm 3 mps 757 mmHg 59%
    14:00 -1°C° 0 mm 4 mps 756 mmHg 59%
    15:00 -1°C° 0 mm 3 mps 756 mmHg 63%
    16:00 -2°C° 0 mm 3 mps 756 mmHg 68%
    17:00 -4°C° 0 mm 3 mps 756 mmHg 72%
    18:00 -5°C° 0 mm 3 mps 756 mmHg 73%
    19:00 -5°C° 0 mm 3 mps 756 mmHg 74%
    20:00 -5°C° 0 mm 3 mps 756 mmHg 75%
    21:00 -5°C° 0 mm 4 mps 756 mmHg 77%
    22:00 -5°C° 0 mm 4 mps 756 mmHg 79%
    23:00 -5°C° 0 mm 4 mps 756 mmHg 81%

    23 November, Friday

    Time Temperature Precipitation Wind Pressure Humidity
    00:00 -5°C° 0 mm 4 mps 756 mmHg 83%
    01:00 -7°C° 0 mm 4 mps 756 mmHg 85%
    02:00 -7°C° 0 mm 4 mps 756 mmHg 88%
    03:00 -7°C° 0 mm 4 mps 757 mmHg 88%
    04:00 -7°C° 0 mm 4 mps 757 mmHg 88%
    05:00 -7°C° 0 mm 4 mps 757 mmHg 88%
    06:00 -5°C° 0 mm 3 mps 758 mmHg 86%
    07:00 -5°C° 0 mm 3 mps 758 mmHg 85%
    08:00 -5°C° 0 mm 3 mps 759 mmHg 84%
    09:00 -2°C° 0 mm 3 mps 760 mmHg 77%
    10:00 -2°C° 0 mm 4 mps 760 mmHg 71%
    11:00 -1°C° 0 mm 4 mps 761 mmHg 65%
    12:00 -1°C° 0 mm 4 mps 761 mmHg 63%
    13:00 +1°C° 0 mm 3 mps 761 mmHg 61%
    14:00 +1°C° 0 mm 3 mps 762 mmHg 59%
    15:00 +1°C° 0 mm 2 mps 762 mmHg 62%
    16:00 -2°C° 0 mm 2 mps 763 mmHg 65%
    17:00 -3°C° 0 mm 2 mps 763 mmHg 69%
    18:00 -3°C° 0 mm 2 mps 763 mmHg 68%
    19:00 -2°C° 0 mm 1 mps 764 mmHg 68%
    20:00 -2°C° 0 mm 1 mps 764 mmHg 68%
    21:00 -2°C° 0 mm 1 mps 764 mmHg 67%
    22:00 -3°C° 0 mm 1 mps 764 mmHg 66%
    23:00 -3°C° 0 mm 1 mps 765 mmHg 64%

    24 November, Saturday

    Time Temperature Precipitation Wind Pressure Humidity
    00:00 -3°C° 0 mm 1 mps 765 mmHg 64%
    01:00 -3°C° 0 mm 1 mps 764 mmHg 64%
    02:00 -3°C° 0 mm 1 mps 764 mmHg 64%
    03:00 -3°C° 0 mm 1 mps 764 mmHg 65%
    04:00 -4°C° 0 mm 1 mps 764 mmHg 66%
    05:00 -4°C° 0 mm 1 mps 764 mmHg 66%
    06:00 -3°C° 0 mm 1 mps 764 mmHg 66%
    07:00 -3°C° 0 mm 1 mps 764 mmHg 66%
    08:00 -3°C° 0 mm 1 mps 764 mmHg 66%
    09:00 -4°C° 0 mm 2 mps 764 mmHg 61%
    10:00 -3°C° 0 mm 2 mps 764 mmHg 57%
    11:00 -1°C° 0 mm 2 mps 764 mmHg 52%
    12:00 -1°C° 0 mm 2 mps 763 mmHg 53%
    13:00 -1°C° 0 mm 2 mps 763 mmHg 53%
    14:00 -1°C° 0 mm 2 mps 762 mmHg 53%
    15:00 -2°C° 0 mm 2 mps 762 mmHg 59%
    16:00 -3°C° 0 mm 2 mps 762 mmHg 64%
    17:00 -4°C° 0 mm 2 mps 762 mmHg 70%
    18:00 -4°C° 0 mm 2 mps 761 mmHg 71%
    19:00 -5°C° 0 mm 2 mps 761 mmHg 72%
    20:00 -5°C° 0 mm 2 mps 761 mmHg 74%
    21:00 -5°C° 0 mm 2 mps 761 mmHg 74%
    22:00 -5°C° 0 mm 2 mps 761 mmHg 75%
    23:00 -6°C° 0 mm 2 mps 760 mmHg 76%
    Show more